Fort Knox, KY

2:17 AM EDT on June 24, 2017 (GMT -0400)
Godman Army Air Field

Weather History for KFTK - November, 2012

Change the Weather History Date:

Tuesday, November 27, 2012

  Actual Average Record
Temperature  
Mean Temperature 34 °F -  
Max Temperature 42 °F 50 °F 66 °F (1998)
Min Temperature 27 °F 32 °F 17 °F (2013)
Degree Days  
Heating Degree Days 30    
Moisture  
Dew Point 31 °F    
Average Humidity 81    
Maximum Humidity 94    
Minimum Humidity 60    
Precipitation  
Precipitation 0.04 in - - ()
Sea Level Pressure  
Sea Level Pressure 30.30 in    
Wind  
Wind Speed 7 mph (North)    
Max Wind Speed 12 mph    
Max Gust Speed -    
Visibility 8 miles    
Events Rain    
Averages and records for this station are not official NWS values.
T = Trace of Precipitation, MM = Missing Value Source: NWS Daily Summary

Daily Weather History Graph

Daily Weather History Graph

Search for Another Location

Airport or City:

Trip Planner

Search our weather history database for the weather conditions in past years. The results will help you decide how hot, cold, wet, or windy it might be!

Date:

Astronomy

Nov. 27, 2012 Rise Set
Actual Time 7:37 AM EST 5:25 PM EST
Civil Twilight 7:08 AM EST 5:54 PM EST
Nautical Twilight 6:36 AM EST 6:26 PM EST
Astronomical Twilight 6:04 AM EST 6:58 PM EST
Moon 4:56 PM EST (11/27) 6:42 AM EST (11/27)
Length of Visible Light 10h 45m
Length of Day
9h 48m
Waxing Gibbous, 99% of the Moon is Illuminated
Nov 27
Waxing Gibbous
Nov 28
Full
Dec 6
Last Quarter
Dec 13
New
Dec 20
First Quarter

Hourly Weather History & Observations

Time (EST) Temp. Windchill Dew Point Humidity Pressure Visibility Wind Dir Wind Speed Gust Speed Precip Events Conditions
12:55 AM 39.4 °F 33.2 °F 36.0 °F 88% 30.22 in 7.0 mi North 9.2 mph - 0.02 in Rain Light Rain
1:30 AM 39.2 °F 33.6 °F 35.6 °F 87% 30.19 in 6.0 mi North 8.1 mph - N/A Rain Light Rain
1:55 AM 38.1 °F 31.7 °F 35.4 °F 90% 30.22 in 7.0 mi North 9.2 mph - 0.02 in Rain Light Rain
2:28 AM 37.4 °F 29.8 °F 35.6 °F 93% 30.21 in 6.0 mi North 11.5 mph - N/A   Overcast
2:55 AM 37.2 °F 30.6 °F 34.9 °F 91% 30.24 in 10.0 mi North 9.2 mph - N/A   Overcast
3:55 AM 36.7 °F 29.4 °F 34.3 °F 91% 30.25 in 7.0 mi North 10.4 mph - N/A   Overcast
4:55 AM 36.7 °F 30.5 °F 33.4 °F 88% 30.25 in 7.0 mi North 8.1 mph - N/A   Overcast
5:55 AM 36.0 °F 29.6 °F 32.5 °F 87% 30.26 in 7.0 mi North 8.1 mph - N/A   Overcast
6:55 AM 35.2 °F 29.5 °F 31.8 °F 87% 30.28 in 4.0 mi NNE 6.9 mph - N/A   Overcast
7:55 AM 34.2 °F 26.8 °F 31.3 °F 89% 30.31 in 10.0 mi North 9.2 mph - N/A   Overcast
8:55 AM 34.3 °F 28.4 °F 30.6 °F 86% 30.33 in 5.0 mi NNE 6.9 mph - N/A   Overcast
9:55 AM 34.7 °F 28.1 °F 29.8 °F 82% 30.33 in 10.0 mi North 8.1 mph - N/A   Overcast
10:55 AM 36.0 °F 30.3 °F 30.0 °F 79% 30.36 in 10.0 mi NNE 6.9 mph - N/A   Overcast
11:20 AM 37.4 °F 33.8 °F 30.2 °F 75% 30.36 in 10.0 mi NNE 4.6 mph - N/A   Overcast
11:55 AM 37.9 °F 34.4 °F 30.2 °F 74% 30.35 in 10.0 mi North 4.6 mph - N/A   Mostly Cloudy
12:55 PM 39.4 °F 35.2 °F 30.6 °F 71% 30.32 in 10.0 mi North 5.8 mph - N/A   Scattered Clouds
1:55 PM 41.9 °F 39.0 °F 30.2 °F 63% 30.31 in 10.0 mi Variable 4.6 mph - N/A   Scattered Clouds
2:55 PM 42.6 °F 39.9 °F 29.7 °F 60% 30.29 in 10.0 mi North 4.6 mph - N/A   Scattered Clouds
3:55 PM 42.3 °F 39.4 °F 29.5 °F 61% 30.30 in 10.0 mi NW 4.6 mph - N/A   Mostly Cloudy
4:55 PM 41.5 °F - 28.6 °F 60% 30.30 in 10.0 mi Calm Calm - N/A   Mostly Cloudy
5:55 PM 38.7 °F 36.3 °F 28.2 °F 66% 30.32 in 10.0 mi NW 3.5 mph - N/A   Mostly Cloudy
6:55 PM 34.7 °F - 27.0 °F 73% 30.34 in 10.0 mi Calm Calm - N/A   Clear
7:55 PM 30.7 °F - 26.2 °F 83% 30.35 in 10.0 mi Calm Calm - N/A   Clear
8:55 PM 31.6 °F - 26.2 °F 80% 30.35 in 10.0 mi Calm Calm - N/A   Clear
9:55 PM 30.0 °F - 26.8 °F 88% 30.35 in 10.0 mi Calm Calm - N/A   Clear
10:55 PM 27.5 °F - 25.5 °F 92% 30.34 in 9.0 mi Calm Calm - N/A   Clear
11:55 PM 28.6 °F - 27.0 °F 94% 30.35 in 5.0 mi Calm Calm - N/A   Clear